GW6277 Weather Reports


Display with metric or nautical units.
time (UTC)temp
F
wind
direction
speed
MPH
gust
MPH
rain 1hr
in
rain 24hr
in
rain mn
in
humidity
%
barometer
mb
20260502224240 51 156 0.0 0.0 0.00 0.12 0.12 80 1008.3
20260502223738 51 143 0.0 0.0 0.00 0.12 0.12 81 1008.5
20260502223235 51 152 0.0 0.0 0.00 0.12 0.12 81 1008.5
20260502222733 51 152 1.0 1.0 0.00 0.12 0.12 82 1008.4
20260502222229 51 150 0.0 0.0 0.00 0.12 0.12 82 1008.4
20260502221725 51 150 0.0 0.0 0.00 0.12 0.12 83 1008.5
20260502221222 51 151 0.0 1.0 0.00 0.12 0.12 83 1008.4
20260502220719 51 142 0.0 0.0 0.00 0.12 0.12 84 1008.3
20260502220215 51 141 0.0 0.0 0.00 0.12 0.12 84 1008.4
20260502215712 51 139 0.0 0.0 0.00 0.12 0.12 83 1008.4
20260502215209 51 138 0.0 0.0 0.00 0.12 0.12 83 1008.5
20260502214706 51 138 0.0 0.0 0.00 0.12 0.12 82 1008.5
20260502214203 51 138 0.0 0.0 0.00 0.12 0.12 82 1008.5
20260502213700 51 138 0.0 0.0 0.00 0.12 0.12 81 1008.7
20260502213157 51 138 0.0 0.0 0.00 0.12 0.12 81 1008.6
20260502212656 51 155 0.0 0.0 0.00 0.12 0.12 79 1008.4
20260502212154 51 99 0.0 0.0 0.00 0.12 0.12 80 1008.6
20260502211649 50 100 0.0 1.0 0.00 0.12 0.12 79 1008.8
20260502211147 50 151 0.0 0.0 0.00 0.12 0.12 79 1008.6
20260502210644 50 97 1.0 1.0 0.00 0.12 0.12 80 1008.6
20260502210141 50 127 1.0 1.0 0.00 0.12 0.12 80 1008.5
20260502205638 50 120 0.0 1.0 0.00 0.12 0.12 81 1008.7
20260502205134 50 137 0.0 0.0 0.00 0.12 0.12 80 1008.7
20260502204631 51 95 0.0 1.0 0.00 0.12 0.12 79 1008.6
20260502204129 51 112 0.0 0.0 0.00 0.12 0.12 77 1008.6
20260502203626 52 54 3.0 3.0 0.00 0.12 0.12 75 1008.6
20260502203124 53 327 3.0 4.0 0.00 0.12 0.12 72 1008.8
20260502202619 53 140 0.0 1.0 0.00 0.12 0.12 71 1008.4
20260502202117 55 304 2.0 3.0 0.00 0.12 0.12 66 1008.5
20260502201613 55 265 3.0 3.0 0.00 0.12 0.12 59 1008.3
20260502201110 56 203 2.0 2.0 0.00 0.12 0.12 53 1008.3
20260502200606 56 146 1.0 2.0 0.00 0.12 0.12 55 1008.3
20260502195601 56 168 1.0 2.0 0.00 0.12 0.12 58 1008.1
20260502195057 57 190 2.0 2.0 0.00 0.12 0.12 58 1008.2
20260502194554 57 219 5.0 7.0 0.00 0.12 0.12 58 1008.4
20260502194050 57 209 3.0 4.0 0.00 0.12 0.12 58 1008.1
20260502193547 57 218 3.0 6.0 0.00 0.12 0.12 61 1008.3
20260502193044 56 149 1.0 2.0 0.00 0.12 0.12 63 1008.3
20260502192539 56 132 1.0 1.0 0.00 0.12 0.12 62 1008.8
20260502192037 56 135 1.0 1.0 0.00 0.12 0.12 63 1008.8
20260502191534 57 133 0.0 1.0 0.00 0.12 0.12 63 1008.6
20260502191032 56 199 2.0 2.0 0.00 0.12 0.12 62 1008.7
20260502190529 56 209 2.0 3.0 0.00 0.12 0.12 61 1008.7
20260502190026 57 188 3.0 4.0 0.00 0.12 0.12 62 1008.8
20260502185521 56 146 5.0 7.0 0.00 0.12 0.12 60 1008.8
20260502185018 56 152 0.0 1.0 0.00 0.12 0.12 63 1008.8
20260502184513 57 145 2.0 3.0 0.00 0.12 0.12 63 1008.7
20260502184010 56 133 1.0 1.0 0.00 0.12 0.12 63 1008.6
20260502183506 57 140 0.0 1.0 0.00 0.12 0.12 64 1008.8
20260502183001 57 208 3.0 4.0 0.00 0.12 0.12 61 1008.9
20260502182457 57 194 2.0 4.0 0.00 0.12 0.12 61 1008.7
20260502181953 57 221 5.0 6.0 0.00 0.12 0.12 58 1008.8
20260502181452 57 188 2.0 3.0 0.00 0.12 0.12 62 1008.8
20260502180950 58 152 0.0 0.0 0.00 0.12 0.12 59 1008.6
20260502180447 59 133 1.0 1.0 0.00 0.12 0.12 57 1008.9
20260502170406 57 231 1.0 2.0 0.00 0.12 0.12 57 1009.5
20260502163849 54 110 1.0 1.0 0.00 0.12 0.12 73 1009.5
20260502163345 54 128 0.0 0.0 0.00 0.12 0.12 74 1009.5
20260502162843 55 131 0.0 0.0 0.00 0.12 0.12 74 1009.6
20260502162339 55 145 0.0 0.0 0.00 0.12 0.12 77 1009.6
20260502161837 55 145 0.0 0.0 0.00 0.12 0.12 79 1009.6
20260502161332 54 146 0.0 0.0 0.00 0.12 0.12 79 1009.8
20260502160831 53 140 1.0 1.0 0.00 0.12 0.12 80 1010.1
20260502160329 53 152 1.0 1.0 0.00 0.12 0.12 80 1010.1
20260502152258 51 196 2.0 3.0 0.00 0.12 0.12 87 1010.3
20260502151756 51 149 0.0 0.0 0.00 0.12 0.12 88 1010.5
20260502151253 51 192 3.0 3.0 0.00 0.12 0.12 89 1010.3
20260502150751 50 157 0.0 1.0 0.00 0.12 0.12 89 1010.2
20260502150247 50 167 0.0 1.0 0.00 0.12 0.12 88 1010.3
20260502130635 47 143 0.0 0.0 0.07 0.08 0.08 91 1011.2
20260502130133 47 124 0.0 0.0 0.07 0.08 0.08 91 1011.2
20260502123619 47 98 0.0 0.0 0.05 0.06 0.06 91 1011.4
20260502123115 47 136 0.0 0.0 0.00 0.05 0.05 92 1011.4
20260502122612 47 136 0.0 1.0 0.00 0.05 0.05 91 1011.3
20260502122109 47 105 0.0 1.0 0.00 0.05 0.05 91 1011.2
20260502121606 47 101 0.0 0.0 0.00 0.05 0.05 91 1011.0
20260502121104 47 4 2.0 3.0 0.00 0.05 0.05 92 1010.8
20260502120600 47 85 1.0 2.0 0.00 0.05 0.05 92 1010.8
20260502115556 47 43 1.0 1.0 0.00 0.05 0.05 92 1010.4
20260502115051 47 102 1.0 1.0 0.00 0.05 0.05 92 1010.5
20260502114548 47 111 0.0 0.0 0.00 0.05 0.05 92 1010.3
20260502114044 47 112 0.0 0.0 0.00 0.05 0.05 92 1010.5
20260502113542 47 130 0.0 0.0 0.07 0.05 0.05 92 1010.6
20260502113041 47 107 0.0 0.0 0.19 0.05 0.05 92 1010.4
20260502112538 47 107 0.0 0.0 0.12 0.04 0.04 91 1010.7
20260502112035 47 104 0.0 0.0 0.05 0.02 0.02 91 1010.6
20260502111532 47 136 0.0 0.0 0.05 0.02 0.02 91 1010.6
20260502111030 47 115 0.0 0.0 0.00 0.01 0.01 91 1010.4
20260502110527 47 147 0.0 0.0 0.00 0.01 0.01 91 1010.3
20260502110025 47 147 0.0 0.0 0.00 0.01 0.01 91 1010.3
20260502105522 47 147 0.0 0.0 0.07 0.01 0.01 91 1010.4
20260502105019 47 150 1.0 1.0 0.07 0.01 0.01 91 1010.2
20260502104516 47 174 1.0 1.0 0.00 0.00 0.00 91 1010.2
20260502104014 46 140 0.0 0.0 0.00 0.00 0.00 91 1010.2
20260502103511 46 141 0.0 0.0 0.00 0.00 0.00 91 1010.2
20260502103009 46 137 0.0 0.0 0.00 0.00 0.00 91 1010.0
20260502102505 46 137 0.0 0.0 0.00 0.00 0.00 91 1010.0
20260502102002 46 137 0.0 0.0 0.00 0.00 0.00 91 1009.9
20260502101500 46 138 0.0 1.0 0.00 0.00 0.00 91 1009.8
20260502100958 46 105 0.0 0.0 0.00 0.00 0.00 91 1009.7
20260502100457 46 104 0.0 0.0 0.00 0.00 0.00 91 1009.9
20260502091431 47 108 0.0 0.0 0.00 0.00 0.00 87 1009.5
20260502090928 47 107 0.0 0.0 0.00 0.00 0.00 86 1009.5
20260502090425 47 107 0.0 0.0 0.00 0.00 0.00 84 1009.7
20260502071320 48 141 0.0 0.0 0.00 0.00 0.00 70 1009.8
20260502070818 48 207 3.0 3.0 0.00 0.00 0.00 72 1009.9
20260502070315 49 121 0.0 0.0 0.00 0.00 0.00 70 1009.3
20260502065814 50 106 0.0 0.0 0.00 0.00 0.00 69 1009.5
20260502065312 49 94 1.0 1.0 0.00 0.00 0.00 67 1009.9
20260502064810 48 99 0.0 1.0 0.00 0.00 0.00 68 1009.9
20260502064308 48 149 0.0 0.0 0.00 0.00 0.00 68 1010.1
20260502063805 48 149 0.0 0.0 0.00 0.00 0.00 69 1010.3
20260502063303 48 148 0.0 0.0 0.00 0.00 0.00 71 1010.3
20260502062759 47 153 0.0 0.0 0.00 0.00 0.00 69 1010.1
20260502062257 47 145 0.0 0.0 0.00 0.00 0.00 70 1010.0
20260502061756 47 145 0.0 0.0 0.00 0.00 0.00 70 1009.9
20260502061253 46 146 0.0 0.0 0.00 0.00 0.00 72 1009.7
20260502060752 45 139 0.0 0.0 0.00 0.00 0.00 74 1009.6
20260502060248 45 139 0.0 0.0 0.00 0.00 0.00 76 1009.7
20260502055747 45 139 0.0 0.0 0.00 0.00 0.00 75 1009.6
20260502055244 45 139 0.0 0.0 0.00 0.00 0.00 74 1009.9
20260502054743 45 139 0.0 0.0 0.00 0.00 0.00 74 1009.8
20260502054240 45 139 0.0 0.0 0.00 0.00 0.00 74 1009.9
20260502053738 45 139 0.0 0.0 0.00 0.00 0.00 76 1009.7
20260502053235 45 139 0.0 0.0 0.00 0.00 0.00 76 1009.7
20260502052733 44 139 0.0 0.0 0.00 0.00 0.00 75 1010.1
20260502052231 44 139 0.0 0.0 0.00 0.00 0.00 76 1010.1
20260502051728 44 139 0.0 0.0 0.00 0.00 0.00 76 1009.9
20260502051227 43 139 0.0 0.0 0.00 0.00 0.00 75 1009.9
20260502050723 43 139 0.0 0.0 0.00 0.00 0.00 74 1009.9
20260502050219 43 139 0.0 0.0 0.00 0.00 0.00 74 1010.0
20260502045716 44 139 0.0 0.0 0.00 0.00 0.00 74 1010.0
20260502045213 44 139 0.0 0.0 0.00 0.00 0.00 73 1010.1
20260502044710 44 139 0.0 0.0 0.00 0.00 0.00 74 1010.0
20260502044206 44 139 0.0 0.0 0.00 0.00 0.00 73 1009.9
20260502043704 44 139 0.0 0.0 0.00 0.00 0.00 73 1010.0
20260502043201 44 139 0.0 0.0 0.00 0.00 0.00 73 1009.9
20260502042700 44 139 0.0 0.0 0.00 0.00 0.00 72 1010.1
20260502042158 44 139 0.0 0.0 0.00 0.00 0.00 72 1010.1
20260502041655 44 139 0.0 0.0 0.00 0.00 0.00 72 1010.1
20260502041152 44 139 0.0 0.0 0.00 0.00 0.00 72 1010.2
20260502040649 44 139 0.0 0.0 0.00 0.00 0.00 71 1010.3
20260502040146 45 139 0.0 0.0 0.00 0.00 0.00 70 1010.3
20260502035642 45 139 0.0 0.0 0.00 0.01 0.01 70 1010.1
20260502035139 45 139 0.0 0.0 0.00 0.01 0.01 69 1010.2
20260502034637 46 139 0.0 0.0 0.00 0.01 0.01 69 1010.2
20260502034136 46 139 0.0 0.0 0.00 0.01 0.01 68 1010.2
20260502033633 46 139 0.0 0.0 0.00 0.01 0.01 69 1010.1
20260502033131 46 135 0.0 0.0 0.00 0.01 0.01 69 1010.2
20260502032627 46 135 0.0 0.0 0.00 0.01 0.01 69 1010.1
20260502032123 46 142 0.0 0.0 0.00 0.01 0.01 71 1010.2
20260502031621 46 146 0.0 0.0 0.00 0.01 0.01 71 1010.0
20260502031119 45 160 1.0 1.0 0.00 0.01 0.01 71 1010.2
20260502030618 44 146 1.0 1.0 0.00 0.01 0.01 70 1010.1
20260502030115 44 123 0.0 0.0 0.00 0.01 0.01 69 1010.0
20260502025611 44 123 0.0 0.0 0.00 0.01 0.01 68 1009.9
20260502025110 44 123 0.0 0.0 0.00 0.01 0.01 68 1009.8
20260502024607 44 123 0.0 0.0 0.00 0.01 0.01 68 1009.9
20260502024106 44 123 0.0 0.0 0.00 0.01 0.01 69 1009.9
20260502023603 43 123 0.0 0.0 0.00 0.01 0.01 70 1010.0
20260502023100 43 123 0.0 0.0 0.00 0.01 0.01 69 1009.7
20260502022556 43 123 0.0 0.0 0.00 0.01 0.01 68 1009.8
20260502022054 43 123 0.0 0.0 0.00 0.01 0.01 68 1009.8
20260502021551 43 123 0.0 0.0 0.00 0.01 0.01 67 1009.7
20260502021048 43 123 0.0 0.0 0.00 0.01 0.01 67 1010.0
20260502020546 43 123 0.0 0.0 0.00 0.01 0.01 68 1009.9
20260502020042 43 123 0.0 0.0 0.00 0.01 0.01 66 1010.0
20260502015540 43 123 0.0 0.0 0.00 0.01 0.01 64 1010.0
20260502015036 44 123 0.0 0.0 0.00 0.01 0.01 63 1009.8
20260502014533 44 123 0.0 0.0 0.00 0.01 0.01 63 1009.8
20260502014030 44 123 0.0 0.0 0.00 0.01 0.01 62 1009.8
20260502013526 45 123 0.0 0.0 0.00 0.01 0.01 61 1009.7
20260502013022 45 123 0.0 0.0 0.00 0.01 0.01 61 1009.9
20260502012520 46 123 0.0 0.0 0.00 0.01 0.01 59 1009.7
20260502012017 46 123 0.0 0.0 0.00 0.01 0.01 59 1009.7
20260502011513 46 122 0.0 0.0 0.00 0.01 0.01 60 1009.5
20260502011010 46 123 0.0 0.0 0.00 0.01 0.01 58 1009.7
20260502010508 46 123 0.0 0.0 0.00 0.01 0.01 59 1009.3
20260502010004 46 123 0.0 0.0 0.00 0.01 0.01 58 1009.5
20260502005502 46 124 0.0 0.0 0.00 0.01 0.01 56 1009.6
20260502004959 47 124 0.0 0.0 0.00 0.01 0.01 56 1009.4
20260502004454 47 124 0.0 0.0 0.00 0.01 0.01 56 1009.2
20260502003952 47 124 0.0 0.0 0.00 0.01 0.01 55 1009.5
20260502003449 47 124 0.0 0.0 0.00 0.01 0.01 55 1009.2
20260502002945 48 123 0.0 0.0 0.00 0.01 0.01 54 1009.1
20260502002443 48 123 0.0 0.0 0.00 0.01 0.01 53 1009.1
20260502001940 49 123 0.0 0.0 0.00 0.01 0.01 51 1009.0
20260502001437 49 123 0.0 0.0 0.00 0.01 0.01 51 1009.0
20260502000935 50 123 0.0 0.0 0.00 0.01 0.01 49 1008.7
20260502000434 51 123 0.0 0.0 0.00 0.01 0.01 48 1008.8
20260501235930 52 123 0.0 0.0 0.00 0.01 0.01 49 1008.5
20260501235425 53 123 0.0 0.0 0.00 0.01 0.01 46 1008.7
20260501234920 54 123 0.0 0.0 0.00 0.01 0.01 45 1008.5
20260501234418 54 123 0.0 0.0 0.00 0.01 0.01 42 1008.4
20260501233916 56 123 0.0 0.0 0.00 0.01 0.01 40 1008.5
20260501233413 57 123 0.0 0.0 0.00 0.01 0.01 39 1008.3
20260501232908 58 108 0.0 0.0 0.00 0.01 0.01 36 1008.5
20260501232406 58 110 0.0 0.0 0.00 0.01 0.01 33 1008.1
20260501231904 59 133 0.0 0.0 0.00 0.01 0.01 34 1008.0
20260501231402 59 97 1.0 1.0 0.00 0.01 0.01 31 1007.9
20260501230900 59 129 0.0 0.0 0.00 0.01 0.01 34 1007.8
20260501230358 59 132 0.0 0.0 0.00 0.01 0.01 33 1007.7
20260501225855 60 104 0.0 1.0 0.00 0.01 0.01 29 1007.7
20260501225353 60 133 0.0 0.0 0.00 0.01 0.01 30 1007.9
20260501224849 60 116 1.0 1.0 0.00 0.01 0.01 30 1007.6